CW8095 Weather Reports


Display with metric or nautical units.
time (UTC)temp
F
wind
direction
speed
MPH
gust
MPH
rain 1hr
in
rain 24hr
in
rain mn
in
humidity
%
barometer
mb
20260502205021 85 52 3.0 7.0 0.00 0.00 0.00 22 1020.3
20260502204016 84 201 3.0 9.0 0.00 0.00 0.00 25 1020.4
20260502203047 83 103 2.0 4.0 0.00 0.00 0.00 24 1020.4
20260502202022 85 182 2.0 6.0 0.00 0.00 0.00 25 1020.5
20260502201016 84 64 4.0 9.0 0.00 0.00 0.00 24 1020.6
20260502200027 84 13 2.0 4.0 0.00 0.00 0.00 25 1020.6
20260502195041 83 16 3.0 7.0 0.00 0.00 0.00 25 1020.8
20260502194017 83 252 3.0 8.0 0.00 0.00 0.00 26 1020.9
20260502193026 83 307 2.0 4.0 0.00 0.00 0.00 25 1020.9
20260502192022 84 260 3.0 8.0 0.00 0.00 0.00 26 1021.0
20260502191017 83 83 2.0 6.0 0.00 0.00 0.00 25 1021.1
20260502190027 83 246 2.0 8.0 0.00 0.00 0.00 25 1021.3
20260502185022 83 320 2.0 7.0 0.00 0.00 0.00 26 1021.4
20260502184017 83 283 3.0 9.0 0.00 0.00 0.00 27 1021.5
20260502183028 82 250 2.0 8.0 0.00 0.00 0.00 27 1021.6
20260502182043 81 78 3.0 8.0 0.00 0.00 0.00 27 1021.8
20260502181018 82 99 2.0 6.0 0.00 0.00 0.00 28 1021.9
20260502164020 79 53 2.0 6.0 0.00 0.00 0.00 34 1022.7
20260502163036 78 226 2.0 9.0 0.00 0.00 0.00 35 1022.7
20260502162046 77 11 2.0 4.0 0.00 0.00 0.00 35 1022.6
20260502161022 76 274 2.0 4.0 0.00 0.00 0.00 38 1022.6
20260502152028 72 268 4.0 7.0 0.00 0.00 0.00 46 1022.6
20260502151023 72 261 2.0 6.0 0.00 0.00 0.00 48 1022.5
20260502123022 50 240 0.0 1.0 0.00 0.00 0.00 93 1021.4
20260502122016 49 0.0 0.0 0.00 0.00 0.00 94 1021.3
20260502121026 49 240 0.0 1.0 0.00 0.00 0.00 94 1021.2
20260502115017 47 240 0.0 1.0 0.00 0.00 0.00 94 1020.6
20260502114027 47 239 0.0 1.0 0.00 0.00 0.00 94 1020.4
20260502113022 47 0.0 0.0 0.00 0.00 0.00 94 1020.2
20260502112017 47 0.0 0.0 0.00 0.00 0.00 94 1020.0
20260502111028 47 0.0 0.0 0.00 0.00 0.00 94 1020.0
20260502110022 47 0.0 0.0 0.00 0.00 0.00 93 1019.9
20260502105037 47 0.0 0.0 0.00 0.00 0.00 93 1020.0
20260502104027 47 0.0 0.0 0.00 0.00 0.00 92 1019.7
20260502103022 48 0.0 0.0 0.00 0.00 0.00 92 1019.7
20260502102037 48 239 0.0 1.0 0.00 0.00 0.00 93 1019.7
20260502101027 48 240 0.0 2.0 0.00 0.01 0.00 93 1019.9
20260502091028 48 233 0.0 1.0 0.00 0.01 0.00 91 1019.2
20260502071018 50 246 0.0 2.0 0.00 0.01 0.00 89 1019.4
20260502070031 50 244 0.0 1.0 0.00 0.01 0.00 88 1019.4
20260502065025 51 0.0 0.0 0.00 0.01 0.00 88 1019.4
20260502064027 51 0.0 0.0 0.00 0.01 0.00 87 1019.4
20260502063035 51 0.0 0.0 0.00 0.01 0.00 87 1019.5
20260502062037 51 0.0 0.0 0.00 0.01 0.00 84 1019.6
20260502061031 51 0.0 0.0 0.00 0.01 0.00 84 1019.7
20260502060040 52 244 0.0 1.0 0.00 0.01 0.00 85 1019.7
20260502055027 52 245 0.0 1.0 0.00 0.01 0.00 84 1019.8
20260502054035 52 269 1.0 2.0 0.00 0.01 0.00 84 1019.8
20260502053034 52 64 1.0 1.0 0.00 0.01 0.00 84 1019.6
20260502052526 52 0.0 0.0 0.00 0.01 0.00 81 1019.5
20260502051525 53 64 0.0 1.0 0.00 0.01 0.00 81 1019.5
20260502050558 53 64 0.0 1.0 0.00 0.01 0.00 81 1019.6
20260502045526 53 64 0.0 1.0 0.00 0.01 0.01 81 1019.5
20260502044521 53 64 0.0 1.0 0.00 0.01 0.01 81 1019.4
20260502043529 54 0.0 0.0 0.00 0.01 0.01 79 1019.4
20260502042523 54 0.0 0.0 0.00 0.01 0.01 77 1019.5
20260502041531 55 64 0.0 1.0 0.00 0.01 0.01 77 1019.4
20260502040529 55 0.0 0.0 0.00 0.01 0.01 75 1019.4
20260502035522 55 0.0 0.0 0.00 0.01 0.01 74 1019.4
20260502034611 56 64 0.0 1.0 0.00 0.01 0.01 72 1019.2
20260502033526 56 0.0 0.0 0.00 0.01 0.01 69 1019.1
20260502032523 57 0.0 0.0 0.00 0.01 0.01 69 1019.3
20260502031517 58 64 0.0 1.0 0.00 0.01 0.01 67 1019.2
20260502030526 58 68 1.0 2.0 0.00 0.01 0.01 66 1018.9
20260502025521 59 60 1.0 2.0 0.00 0.01 0.01 65 1018.9
20260502024516 59 79 1.0 2.0 0.00 0.01 0.01 65 1018.7
20260502023526 60 58 1.0 2.0 0.00 0.01 0.01 65 1018.6
20260502022521 60 13 1.0 2.0 0.00 0.01 0.01 63 1018.5
20260502021536 60 72 1.0 2.0 0.00 0.01 0.01 63 1018.3
20260502020526 60 62 1.0 3.0 0.00 0.01 0.01 62 1018.2
20260502015541 60 60 2.0 6.0 0.00 0.01 0.01 61 1018.0
20260502014516 61 70 3.0 4.0 0.00 0.01 0.01 61 1017.7
20260502013526 61 64 3.0 6.0 0.00 0.01 0.01 61 1017.7
20260502012520 61 89 2.0 4.0 0.00 0.01 0.01 60 1017.5
20260502011516 61 84 3.0 7.0 0.00 0.01 0.01 60 1017.3
20260502010526 62 65 2.0 6.0 0.00 0.01 0.01 60 1017.2
20260502005541 62 82 3.0 4.0 0.00 0.01 0.01 58 1017.1
20260502004516 62 62 4.0 9.0 0.00 0.01 0.01 57 1016.6
20260502003526 62 59 5.0 9.0 0.00 0.01 0.01 56 1016.7
20260502002541 63 80 5.0 11.0 0.00 0.01 0.01 55 1016.5
20260502001516 63 61 4.0 6.0 0.00 0.01 0.01 56 1016.5
20260502000526 64 65 4.0 7.0 0.00 0.01 0.01 55 1016.3
20260501235521 64 55 4.0 7.0 0.00 0.01 0.01 54 1016.2
20260501234516 65 58 3.0 7.0 0.00 0.01 0.01 54 1016.4
20260501233526 65 82 3.0 8.0 0.00 0.01 0.01 53 1016.2
20260501232541 65 67 5.0 10.0 0.00 0.01 0.01 52 1016.0
20260501231517 65 65 6.0 14.0 0.00 0.01 0.01 54 1015.8
20260501230547 65 70 4.0 9.0 0.00 0.01 0.01 55 1015.9
20260501225522 65 63 5.0 11.0 0.00 0.01 0.01 54 1015.8
20260501224517 66 63 4.0 7.0 0.00 0.01 0.01 54 1015.7
20260501223528 66 68 3.0 8.0 0.00 0.01 0.01 53 1015.5
20260501222522 66 77 3.0 7.0 0.00 0.01 0.01 51 1015.6
20260501221517 67 82 4.0 8.0 0.00 0.01 0.01 50 1015.5
20260501220528 67 64 5.0 9.0 0.00 0.01 0.01 49 1015.5
20260501215522 67 60 6.0 11.0 0.00 0.01 0.01 48 1015.5
20260501214517 67 60 6.0 13.0 0.00 0.01 0.01 48 1015.5
20260501213527 67 67 5.0 10.0 0.00 0.01 0.01 46 1015.6
20260501212522 67 63 8.0 17.0 0.00 0.01 0.01 44 1015.5
20260501211517 69 65 9.0 16.0 0.00 0.02 0.01 41 1015.6
20260501210527 71 53 6.0 18.0 0.00 0.02 0.01 42 1015.5